Location: Unspecified
(52.4292°N, 19.3359°E)
Time: 17:03:25
(UTC+02:00)

Transit 2A Rocket - Pass Details

Date: 23 May 2024
Orbit: 583 x 910 km, 66.7° (Epoch: 14 June)

Event Time Altitude Azimuth Distance (km) Brightness Sun altitude
Rises 09:58:12 0° 313° (NW) 3,290 7.9 45.6°
Reaches altitude 10° 10:01:03 10° 327° (NNW) 2,416 7.3 46.0°
Maximum altitude 10:05:31 24° 20° (NNE) 1,717 7.0 46.6°
Drops below altitude 10° 10:10:14 10° 73° (ENE) 2,551 8.2 47.2°
Sets 10:13:19 0° 87° (E) 3,518 8.9 47.6°
